[[[{"header":{"parameterUnit":"kt","parameterCategory":2,"dx":1,"dy":1,"la1":30.253999710083008,"la2":30.299108505249023,"lo1":-89.0895004272461,"lo2":-89.04439544677734,"nx":28,"ny":28,"refTime":"2022-10-20T21:00:00:Z","depth":0,"parameterNumber":1,"parameterNumberName":"U-component_of_WINDS"},"data":[0.0147,0.0078,0.0028,-0.0076,-0.0138,-0.0219,-0.0265,-0.033,-0.0395,-0.05,-0.057,-0.0631,-0.0719,-0.0818,-0.09,-0.0926,-0.0958,-0.0946,-0.0979,-0.0983,-0.0987,-0.0991,-0.0977,-0.0951,-0.0951,-0.0969,-0.0969,-0.0969,0.0146,0.0084,0.0016,-0.0085,-0.0145,-0.0187,-0.0272,-0.0321,-0.0393,-0.0473,-0.0545,-0.0643,-0.0728,-0.0823,-0.0915,-0.0953,-0.098,-0.0975,-0.0974,-0.0988,-0.0993,-0.0978,-0.0952,-0.0952,-0.0952,-0.0952,-0.0952,-0.0952,0.013,0.0091,0.0002,-0.0074,-0.0138,-0.0206,-0.0254,-0.0326,-0.0396,-0.0494,-0.0542,-0.0627,-0.072,-0.0856,-0.0916,-0.0986,-0.1002,-0.1013,-0.1017,-0.1019,-0.1014,-0.0986,-0.1004,-0.1004,-0.1004,-0.1005,-0.1005,0,0.0102,0.0063,-0.0005,-0.0089,-0.0147,-0.0218,-0.0292,-0.0323,-0.0426,-0.048,-0.0563,-0.062,-0.0735,-0.0822,-0.092,-0.098,-0.1033,-0.1044,-0.1053,-0.1031,-0.0999,-0.102,-0.1028,-0.1043,-0.1044,-0.1044,-0.1045,-0.1045,0.008,0.0042,-0.0076,-0.0118,-0.017,-0.0236,-0.0287,-0.0375,-0.0425,-0.0531,-0.0564,-0.065,-0.0724,-0.0852,-0.094,-0.1027,-0.1054,-0.1055,-0.1068,-0.1045,-0.1058,-0.1055,-0.1061,-0.1051,-0.105,-0.1049,-0.1049,0,0.0071,-0.0009,-0.0086,-0.0199,-0.0229,-0.0267,-0.0366,-0.041,-0.0475,-0.0546,-0.0568,-0.0672,-0.0754,-0.0842,-0.0953,-0.0998,-0.1068,-0.1091,-0.1037,-0.1047,-0.1058,-0.1057,-0.1075,-0.1083,-0.1108,-0.1108,-0.1108,0,0.0019,-0.0028,-0.0147,-0.0187,-0.0244,-0.033,-0.0385,-0.0447,-0.0526,-0.0582,-0.0654,-0.0706,-0.081,-0.0876,-0.0941,-0.1014,-0.1034,-0.1073,-0.109,-0.1068,-0.1063,-0.1099,-0.1101,-0.1124,-0.1124,-0.1124,-0.1124,0,0.0013,-0.0105,-0.017,-0.0211,-0.0337,-0.0366,-0.0421,-0.051,-0.0559,-0.0637,-0.0671,-0.0757,-0.0804,-0.0871,-0.0953,-0.0959,-0.1043,-0.1069,-0.1084,-0.1082,-0.1099,-0.1097,-0.1089,-0.1123,-0.1123,-0.1123,-0.1123,0,-0.0043,-0.0115,-0.0196,-0.0304,-0.0332,-0.0375,-0.0463,-0.052,-0.0609,-0.0652,-0.0714,-0.0773,-0.0841,-0.0861,-0.0958,-0.0942,-0.0986,-0.1029,-0.1032,-0.1045,-0.1065,-0.1051,-0.1033,-0.1035,-0.1056,-0.1056,-0.1055,0,-0.003,-0.0132,-0.0205,-0.0281,-0.034,-0.0416,-0.0467,-0.0542,-0.0603,-0.0665,-0.0734,-0.0804,-0.0837,-0.0871,-0.0907,-0.0982,-0.1002,-0.0982,-0.1077,-0.108,-0.1053,-0.1036,-0.1012,-0.1026,-0.1049,-0.105,-0.105,0,-0.003,-0.018,-0.0187,-0.0238,-0.0349,-0.0399,-0.0455,-0.0543,-0.058,-0.0656,-0.0709,-0.0808,-0.0838,-0.0894,-0.0951,-0.0984,-0.0992,-0.1011,-0.1015,-0.1007,-0.1052,-0.103,-0.1031,-0.1023,-0.1024,-0.1025,-0.1045,0,-0.0101,-0.0161,-0.0185,-0.0291,-0.0342,-0.0393,-0.0482,-0.0526,-0.0574,-0.0637,-0.0714,-0.0799,-0.089,-0.0914,-0.0962,-0.1008,-0.1015,-0.1046,-0.1072,-0.1059,-0.1069,-0.1072,-0.1051,-0.1052,-0.1054,-0.1054,0,0,-0.007,-0.0158,-0.0236,-0.0292,-0.0341,-0.0418,-0.0465,-0.0522,-0.0634,-0.0668,-0.0683,-0.0835,-0.0903,-0.0989,-0.0991,-0.1027,-0.1045,-0.1045,-0.1064,-0.1065,-0.1066,-0.1074,-0.1076,-0.1056,-0.1057,-0.1057,-0.1058,0,-0.0115,-0.0176,-0.0219,-0.0281,-0.0374,-0.0438,-0.0448,-0.0555,-0.0598,-0.0671,-0.0737,-0.0794,-0.0912,-0.0978,-0.1026,-0.1037,-0.1085,-0.1057,-0.1034,-0.1072,-0.1071,-0.1071,-0.1078,-0.1079,-0.106,-0.106,-0.106,0,-0.0133,-0.021,-0.0239,-0.0349,-0.0412,-0.047,-0.0519,-0.0578,-0.0624,-0.0708,-0.078,-0.084,-0.0934,-0.1,-0.1034,-0.1049,-0.1116,-0.1109,-0.1105,-0.1111,-0.1153,-0.1152,-0.1151,-0.1165,-0.1165,-0.1165,0,0,-0.016,-0.0214,-0.0325,-0.0365,-0.04,-0.0494,-0.0534,-0.0586,-0.0666,-0.0698,-0.0775,-0.0853,-0.0924,-0.0968,-0.1038,-0.1098,-0.1126,-0.1118,-0.1113,-0.1109,-0.1113,-0.1153,-0.1152,-0.1165,-0.1165,-0.1165,0,0,-0.0173,-0.0301,-0.0335,-0.0393,-0.0465,-0.0578,-0.0602,-0.0647,-0.0718,-0.0722,-0.0816,-0.0841,-0.0904,-0.096,-0.0949,-0.105,-0.1074,-0.1079,-0.1011,-0.1006,-0.1002,-0.0988,-0.1013,0,0,0,0,0,-0.0264,-0.0285,-0.0314,-0.0337,-0.0477,-0.0562,-0.0581,-0.0656,-0.0672,-0.0689,-0.0761,-0.0808,-0.0974,-0.0966,-0.0989,-0.1001,-0.1164,-0.1164,-0.1164,-0.1091,-0.1085,-0.108,0,0,0,0,0,0,-0.0273,-0.0301,-0.0314,-0.0426,-0.0458,-0.0561,-0.0606,-0.0627,-0.0672,-0.068,-0.0793,-0.0812,-0.088,-0.096,-0.0979,-0.0989,-0.1007,-0.1164,-0.1164,-0.1164,-0.1089,-0.1084,-0.108,0,0,0,0,0,-0.0281,-0.0303,-0.0507,-0.0427,-0.0455,-0.0561,-0.0605,-0.0624,-0.066,-0.0771,-0.0792,-0.0713,-0.0878,-0.09,-0.0972,-0.0978,-0.0994,-0.1001,-0.1164,-0.1164,-0.1164,-0.1087,0,0,0,0,0,0,-0.0287,-0.0322,-0.0515,-0.0526,-0.0423,-0.0557,-0.058,-0.062,-0.075,-0.077,-0.0696,-0.0701,-0.0877,-0.0894,-0.0911,-0.097,-0.0983,-0.099,-0.0995,-0.1164,-0.1164,-0.1164,0,0,0,0,0,0,-0.0311,-0.0331,-0.0521,-0.0512,-0.0524,-0.0552,-0.0573,-0.0645,-0.0751,-0.0668,-0.0676,-0.0697,-0.0854,-0.089,-0.0903,-0.1012,-0.0975,-0.0982,-0.0987,-0.099,-0.1164,-0.1164,0,0,0,0,0,0,-0.0321,-0.0339,-0.051,-0.0518,-0.0528,-0.0664,-0.0618,-0.0758,-0.074,-0.0661,-0.0741,-0.0741,-0.0848,-0.0863,-0.0898,-0.1001,-0.1009,-0.0975,-0.098,-0.0983,-0.0985,0,0,0,0,0,0,0,-0.0329,-0.0192,-0.0446,-0.0523,-0.0532,-0.0633,-0.0636,-0.0639,-0.074,-0.074,-0.0741,-0.0741,-0.0936,-0.0944,-0.0951,-0.0991,0,0,-0.0975,-0.0978,0,0,0,0,0,0,0,0,-0.0186,-0.019,-0.0446,-0.0449,-0.0451,-0.0634,-0.0636,-0.0639,-0.074,-0.074,-0.0741,-0.0741,-0.0938,-0.0944,-0.095,0,0,0,0,0,0,0,0,0,0,0,0,0,0,0,-0.0447,-0.0449,0,-0.0634,-0.0636,-0.0638,-0.074,-0.074,-0.0741,-0.0741,-0.094,-0.0945,-0.095,0,0,0,0,0,0,0,0,0,0,0,0,0,0,0,0,0,0,0,0,0,0,0,0,0,0,0,0,0,0,0,0,0,0,0,0,0,0,0,0,0,0,0,0,0,0,0,0,0,0,0,0,0,0,0,0,0,0,0,0,0,0,0,0,0,0,0,0,0]}],[{"header":{"parameterUnit":"kt","parameterCategory":2,"dx":1,"dy":1,"la1":30.253999710083008,"la2":30.299108505249023,"lo1":-89.0895004272461,"lo2":-89.04439544677734,"nx":28,"ny":28,"refTime":"2022-10-20T21:00:00:Z","depth":0,"parameterNumber":2,"parameterNumberName":"V-component_of_WINDS"},"data":[5.1061,5.1121,5.1109,5.1172,5.1173,5.1213,5.1224,5.1237,5.1245,5.1291,5.1316,5.1312,5.1316,5.1343,5.1368,5.1366,5.1376,5.1402,5.1394,5.1285,5.1269,5.1254,5.1237,5.1406,5.1406,5.1506,5.1507,5.1508,5.0972,5.0974,5.1006,5.1029,5.1055,5.1021,5.1037,5.1061,5.1098,5.111,5.1135,5.1176,5.1208,5.1203,5.1231,5.1257,5.1242,5.1264,5.126,5.126,5.1144,5.1127,5.1275,5.1275,5.1275,5.1275,5.1275,5.1275,5.0808,5.0846,5.0854,5.0888,5.0898,5.0914,5.0947,5.0942,5.0974,5.1003,5.0987,5.103,5.104,5.1071,5.108,5.1111,5.1085,5.1106,5.1111,5.1115,5.1119,5.0965,5.1117,5.1117,5.1116,5.1116,5.1116,0,5.0683,5.0671,5.0703,5.073,5.0756,5.0777,5.0795,5.0816,5.0791,5.0819,5.0857,5.0878,5.0919,5.0953,5.0979,5.0984,5.0951,5.095,5.0963,5.0967,5.0966,5.0961,5.0767,5.0944,5.0943,5.0942,5.0941,5.094,5.051,5.0559,5.0566,5.0589,5.0597,5.0636,5.0657,5.0633,5.0656,5.0675,5.071,5.0745,5.0772,5.0837,5.0831,5.0862,5.0846,5.0913,5.085,5.0852,5.084,5.0835,5.0837,5.0925,5.0927,5.0928,5.093,0,5.0413,5.0399,5.0471,5.0474,5.0476,5.0528,5.053,5.0568,5.0561,5.0612,5.0622,5.0611,5.065,5.0634,5.0678,5.0668,5.0745,5.0732,5.0739,5.0733,5.0788,5.0781,5.0979,5.1001,5.0832,5.0834,5.0835,0,5.0258,5.0324,5.0298,5.0342,5.0412,5.0386,5.0457,5.0458,5.0468,5.0509,5.0472,5.051,5.0485,5.0521,5.0507,5.0569,5.0579,5.0573,5.0567,5.0573,5.0573,5.0582,5.0572,5.0562,5.0561,5.056,5.0559,0,5.0103,5.0171,5.0241,5.0254,5.0266,5.03,5.0306,5.0319,5.0342,5.0369,5.0382,5.0416,5.0434,5.046,5.0441,5.0398,5.0519,5.0456,5.0512,5.0512,5.0537,5.0535,5.0718,5.0558,5.0558,5.0557,5.0557,0,4.9975,5.0004,5.0112,5.0119,5.0138,5.0187,5.0217,5.0255,5.0272,5.0266,5.0288,5.0261,5.0319,5.0256,5.0334,5.0282,5.0301,5.0302,5.0306,5.0306,5.0235,5.0333,5.0515,5.053,5.031,5.0308,5.0306,0,4.9797,4.9904,4.9883,4.9988,5.0034,4.9987,5.004,5.0058,5.0055,5.0093,5.009,5.0135,5.0086,5.0097,5.0139,5.0136,5.0204,5.0128,5.0176,5.0178,5.0166,5.0334,5.0362,5.0477,5.028,5.0283,5.0285,0,4.9657,4.9675,4.9696,4.9707,4.9729,4.977,4.9834,4.9873,4.9898,4.9926,4.9974,5.0042,5.0004,5.0026,5.0009,5.0053,5.0157,5.0008,5.0008,5.003,5.0268,5.0293,5.0313,5.0135,5.0139,5.0141,5.0264,0,4.9454,4.951,4.9567,4.9602,4.9632,4.97,4.9685,4.9718,4.9697,4.9693,4.9769,4.9784,4.9825,4.9847,4.9829,4.9936,4.9915,4.9877,4.9812,4.9925,4.9964,4.9981,4.9754,4.9752,4.975,4.9749,0,0,4.9284,4.9364,4.9342,4.9404,4.9427,4.9379,4.9452,4.947,4.9509,4.9524,4.9489,4.9585,4.96,4.9692,4.9727,4.9747,4.9762,4.9725,4.9873,4.9887,4.9899,4.9942,4.996,4.9746,4.9745,4.9745,4.9744,0,4.9206,4.9225,4.93,4.9317,4.9342,4.9335,4.9353,4.937,4.9372,4.9449,4.9407,4.9452,4.9534,4.9551,4.957,4.9714,4.9679,4.973,4.9808,4.9857,4.9873,4.9887,4.9932,4.995,4.974,4.9741,4.9741,0,4.9062,4.9075,4.9111,4.9168,4.9185,4.9238,4.9166,4.9227,4.9265,4.9211,4.9288,4.9295,4.932,4.9413,4.9455,4.9424,4.9603,4.9548,4.9558,4.9561,4.9607,4.9627,4.9644,4.9415,4.9414,4.9413,0,0,4.8996,4.905,4.9058,4.915,4.9164,4.9156,4.9185,4.9167,4.9192,4.9202,4.921,4.9234,4.9279,4.931,4.9354,4.946,4.946,4.9508,4.9524,4.9536,4.9546,4.9596,4.9615,4.9409,4.9409,4.9409,0,0,4.8965,4.8978,4.8953,4.9059,4.9083,4.9097,4.9153,4.9123,4.9161,4.9152,4.9126,4.9132,4.922,4.9229,4.9175,4.9329,4.9266,4.9279,4.932,4.9339,4.9354,4.9348,4.9103,0,0,0,0,0,4.8879,4.8975,4.8953,4.8969,4.9043,4.9109,4.9118,4.91,4.9053,4.9097,4.9098,4.9061,4.9193,4.9145,4.9161,4.922,4.9356,4.9365,4.9374,4.9451,4.9472,4.9489,0,0,0,0,0,0,4.8885,4.8905,4.8951,4.8969,4.8985,4.9106,4.9023,4.902,4.9048,4.9039,4.9062,4.9062,4.9047,4.9136,4.915,4.9207,4.9098,4.9359,4.9367,4.9375,4.9458,4.9475,4.9489,0,0,0,0,0,4.889,4.8905,4.9029,4.8967,4.8982,4.8979,4.9019,4.9016,4.9037,4.9041,4.904,4.9021,4.905,4.906,4.9144,4.9201,4.9088,4.9094,4.9365,4.9371,4.9377,4.9466,0,0,0,0,0,0,4.8893,4.8903,4.9031,4.9035,4.893,4.8972,4.8978,4.9013,4.9037,4.9037,4.8998,4.8991,4.9052,4.906,4.9069,4.9199,4.908,4.9085,4.9089,4.9369,4.9374,4.9379,0,0,0,0,0,0,4.8894,4.8906,4.9033,4.8987,4.8985,4.8966,4.8971,4.9041,4.9038,4.8992,4.8987,4.8994,4.9039,4.9061,4.9067,4.9177,4.9074,4.9079,4.9083,4.9085,4.9373,4.9377,0,0,0,0,0,0,4.8899,4.8909,4.8986,4.8985,4.8983,4.9021,4.9027,4.9103,4.8999,4.8991,4.8989,4.8984,4.9041,4.9047,4.9066,4.9174,4.9176,4.9074,4.9077,4.908,4.9082,0,0,0,0,0,0,0,4.8903,4.8839,4.9011,4.8983,4.8981,4.9067,4.9068,4.9069,4.8998,4.8994,4.899,4.8986,4.9043,4.9049,4.9055,4.9171,0,0,4.9073,4.9076,0,0,0,0,0,0,0,0,4.8834,4.8837,4.9011,4.9011,4.9012,4.9068,4.9068,4.9069,4.8997,4.8994,4.8991,4.8988,4.9045,4.905,4.9054,0,0,0,0,0,0,0,0,0,0,0,0,0,0,0,4.9011,4.9011,0,4.9068,4.9068,4.9069,4.8997,4.8994,4.8991,4.8989,4.9046,4.905,4.9054,0,0,0,0,0,0,0,0,0,0,0,0,0,0,0,0,0,0,0,0,0,0,0,0,0,0,0,0,0,0,0,0,0,0,0,0,0,0,0,0,0,0,0,0,0,0,0,0,0,0,0,0,0,0,0,0,0,0,0,0,0,0,0,0,0,0,0,0,0]}]]]